DW9005 Weather Reports


time (UTC)temp
C
wind
direction
speed
KPH
gust
KPH
rain 1hr
cm
rain 24hr
cm
rain mn
cm
humidity
%
barometer
mb
20260901164555 32 0.0 0.0 0.00 0.00 0.00 62 1019.2
20260901163051 32 0.0 0.0 0.00 0.00 0.00 62 1019.4
20260901161533 32 0.0 0.0 0.00 0.00 0.00 63 1019.4
20260901160035 31 0.0 0.0 0.00 0.00 0.00 63 1019.5
20260901154511 31 0.0 0.0 0.00 0.00 0.00 68 1019.7
20260901153010 31 0.0 0.0 0.00 0.00 0.00 71 1019.8
20260901151607 30 0.0 0.0 0.00 0.00 0.00 73 1019.9
20260901150049 29 0.0 0.0 0.00 0.00 0.00 75 1020.0
20260901144542 28 0.0 0.0 0.00 0.00 0.00 76 1019.8
20260901143022 28 0.0 0.0 0.00 0.00 0.00 78 1019.9
20260901141532 27 0.0 0.0 0.00 0.00 0.00 84 1019.9
20260901140059 26 0.0 0.0 0.00 0.00 0.00 87 1019.8
20260901134617 25 0.0 0.0 0.00 0.00 0.00 90 1019.8
20260901133031 24 0.0 0.0 0.00 0.00 0.00 93 1019.8
20260901131527 23 0.0 0.0 0.00 0.00 0.00 95 1019.9
20260901130006 22 0.0 0.0 0.00 0.00 0.00 95 1019.8
20260901124506 22 0.0 0.0 0.00 0.00 0.00 95 1019.8
20260901123047 22 0.0 0.0 0.00 0.00 0.00 95 1019.7
20260901121548 21 0.0 0.0 0.00 0.00 0.00 95 1019.6
20260901120028 21 0.0 0.0 0.00 0.00 0.00 95 1019.5
20260901114527 21 0.0 0.0 0.00 0.00 0.00 95 1019.2
20260901113006 21 0.0 0.0 0.00 0.00 0.00 95 1018.9
20260901111506 21 0.0 0.0 0.00 0.00 0.00 95 1018.9
20260901110049 21 0.0 0.0 0.00 0.00 0.00 95 1018.6
20260901104544 21 0.0 0.0 0.00 0.00 0.00 95 1018.6
20260901103028 21 0.0 0.0 0.00 0.00 0.00 95 1018.5
20260901101525 21 0.0 0.0 0.00 0.00 0.00 95 1018.5
20260901100013 21 0.0 0.0 0.00 0.00 0.00 95 1018.5
20260901094513 21 0.0 0.0 0.00 0.00 0.00 95 1018.5
20260901093010 22 0.0 0.0 0.00 0.00 0.00 95 1018.4
20260901091508 22 0.0 0.0 0.00 0.00 0.00 95 1018.2
20260901090007 22 0.0 0.0 0.00 0.00 0.00 95 1018.1
20260901084505 22 0.0 0.0 0.00 0.00 0.00 95 1018.0
20260901083006 22 0.0 0.0 0.00 0.00 0.00 95 1018.0
20260901081502 22 0.0 0.0 0.00 0.00 0.00 95 1017.8
20260901080049 22 0.0 0.0 0.00 0.00 0.00 95 1017.8
20260901074552 22 0.0 0.0 0.00 0.00 0.00 95 1017.7
20260901073024 22 0.0 0.0 0.00 0.00 0.00 95 1017.7
20260901071524 22 0.0 0.0 0.00 0.00 0.00 95 1017.8
20260901070003 22 0.0 0.0 0.00 0.00 0.00 95 1017.8
20260901064502 22 0.0 0.0 0.00 0.00 0.00 95 1017.7
20260901063046 23 0.0 0.0 0.00 0.00 0.00 94 1017.8
20260901061545 23 0.0 0.0 0.00 0.00 0.00 95 1017.8
20260901060027 23 0.0 0.0 0.00 0.00 0.00 94 1017.9
20260901054533 23 0.0 0.0 0.00 0.00 0.00 94 1017.9
20260901053011 23 0.0 0.0 0.00 0.00 0.00 94 1018.0
20260901051508 23 0.0 0.0 0.00 0.00 0.00 94 1018.1
20260901050050 23 0.0 0.0 0.00 0.00 0.00 94 1018.0
20260901044551 23 0.0 0.0 0.00 0.00 0.00 94 1018.2
20260901043032 24 0.0 0.0 0.00 0.00 0.00 94 1018.1
20260901041534 24 0.0 0.0 0.00 0.00 0.00 94 1018.1
20260901040013 24 0.0 0.0 0.00 0.00 0.00 93 1018.2
20260901034520 24 0.0 0.0 0.00 0.00 0.00 93 1018.1
20260901033006 25 0.0 0.0 0.00 0.00 0.00 92 1018.1
20260901031500 25 0.0 0.0 0.00 0.00 0.00 92 1018.2
20260901030101 25 0.0 0.0 0.00 0.00 0.00 92 1018.1
20260901024600 25 0.0 0.0 0.00 0.00 0.00 91 1018.1
20260901023101 25 0.0 0.0 0.00 0.00 0.00 90 1018.1
20260901021601 26 0.0 0.0 0.00 0.00 0.00 89 1017.9
20260901020101 26 0.0 0.0 0.00 0.00 0.00 89 1017.8
20260901014558 26 0.0 0.0 0.00 0.00 0.00 87 1017.5
20260901013109 26 0.0 0.0 0.00 0.00 0.00 86 1017.5
20260901011557 27 0.0 0.0 0.00 0.00 0.00 85 1017.4
20260901010037 27 0.0 0.0 0.00 0.00 0.00 83 1017.2
20260901004536 27 0.0 0.0 0.00 0.00 0.00 81 1016.9
20260901003019 28 0.0 0.0 0.00 0.00 0.00 78 1016.8
20260901001518 29 0.0 0.0 0.00 0.00 0.00 75 1016.9
20260831234601 31 0.0 0.0 0.00 0.00 0.00 68 1016.9
20260831233041 32 0.0 0.0 0.00 0.00 0.00 64 1017.0
20260831231541 33 0.0 0.0 0.00 0.00 0.00 61 1016.9
20260831230023 32 0.0 0.0 0.00 0.00 0.00 60 1017.0
20260831224525 33 0.0 0.0 0.00 0.00 0.00 61 1017.1
20260831223005 32 0.0 0.0 0.00 0.00 0.00 63 1017.0
20260831221504 32 0.0 0.0 0.00 0.00 0.00 62 1017.1
20260831220046 33 0.0 0.0 0.00 0.00 0.00 59 1017.1
20260831214545 33 0.0 0.0 0.00 0.00 0.00 60 1017.3
20260831213027 33 0.0 0.0 0.00 0.00 0.00 60 1017.4
20260831211524 33 0.0 0.0 0.00 0.00 0.00 60 1017.6
20260831210004 33 0.0 0.0 0.00 0.00 0.00 62 1017.7
20260831204503 33 0.0 0.0 0.00 0.00 0.00 61 1017.7
20260831203110 33 0.0 0.0 0.00 0.00 0.00 63 1017.7
20260831201601 33 0.0 0.0 0.00 0.00 0.00 58 1017.8
20260831200134 33 0.0 0.0 0.00 0.00 0.00 61 1018.1
20260831194551 32 0.0 0.0 0.00 0.00 0.00 64 1018.3
20260831193045 32 0.0 0.0 0.00 0.00 0.00 62 1018.3
20260831191545 32 0.0 0.0 0.00 0.00 0.00 62 1018.6
20260831190043 32 0.0 0.0 0.00 0.00 0.00 67 1018.6
20260831184544 32 0.0 0.0 0.00 0.00 0.00 65 1018.8
20260831183018 31 0.0 0.0 0.00 0.00 0.00 65 1019.2
20260831181525 31 0.0 0.0 0.00 0.00 0.00 67 1019.3
20260831180108 31 0.0 0.0 0.00 0.00 0.00 67 1019.4
20260831174557 30 0.0 0.0 0.00 0.00 0.00 71 1019.6
20260831173039 30 0.0 0.0 0.00 0.00 0.00 72 1019.7
20260831171539 30 0.0 0.0 0.00 0.00 0.00 76 1019.8
20260831170027 30 0.0 0.0 0.00 0.00 0.00 72 1020.0